Weather History for Lee's Summit, MO

Change the Weather History Date:

Thursday, November 1, 2012

  Actual Average (KMKC) Record (KMKC)
Temperature  
Mean Temperature 58 °F -  
Max Temperature 75 °F 58 °F 79 °F (2011)
Min Temperature 44 °F 42 °F 26 °F (2002)
Degree Days  
Heating Degree Days 6    
Growing Degree Days 8 (Base 50)    
Moisture  
Dew Point 37 °F    
Average Humidity 51    
Maximum Humidity 66    
Minimum Humidity 29    
Precipitation  
Precipitation 0.00 in - - ()
Sea Level Pressure  
Sea Level Pressure 29.96 in    
Wind  
Wind Speed 6 mph (WSW)    
Max Wind Speed 16 mph    
Max Gust Speed 26 mph    
Visibility 10 miles    
Events      
Averages and records for this station are not official NWS values.
T = Trace of Precipitation, MM = Missing Value Source: NWS Daily Summary

Daily Weather History Graph

Daily Weather History Graph

Search for Another Location

Airport:

Trip Planner

Search our weather history database for the weather conditions in past years. The results will help you decide how hot, cold, wet, or windy it might be!

Date:

Astronomy

Nov. 01, 2012 Rise Set
Actual Time 7:45 AM CDT 6:16 PM CDT
Civil Twilight 7:17 AM CDT 6:43 PM CDT
Nautical Twilight 6:46 AM CDT 7:15 PM CDT
Astronomical Twilight 6:14 AM CDT 7:46 PM CDT
Moon 8:15 PM CDT (11/1) 10:17 AM CDT (11/1)
Length of Visible Light 11h 26m
Length of Day
10h 30m
Waning Gibbous, 93% of the Moon is Illuminated
Nov 1
Waning Gibbous
Nov 6
Last Quarter
Nov 13
New
Nov 20
First Quarter
Nov 28
Full

Hourly Weather History & Observations

Time (CDT) Temp. Windchill Dew Point Humidity Pressure Visibility Wind Dir Wind Speed Gust Speed Precip Events Conditions
12:53 AM 46.0 °F 44.8 °F 32.0 °F 58% 30.02 in 10.0 mi SSW 3.5 mph - N/A   Clear
1:53 AM 46.0 °F 43.9 °F 32.0 °F 58% 30.01 in 10.0 mi SSW 4.6 mph - N/A   Clear
2:53 AM 44.1 °F 41.5 °F 32.0 °F 63% 30.01 in 10.0 mi SW 4.6 mph - N/A   Clear
3:53 AM 46.0 °F 43.9 °F 32.0 °F 58% 30.00 in 10.0 mi SSW 4.6 mph - N/A   Clear
4:53 AM 45.0 °F 42.6 °F 32.0 °F 60% 29.99 in 10.0 mi SW 4.6 mph - N/A   Mostly Cloudy
7:53 AM 44.1 °F 40.8 °F 33.1 °F 65% 30.00 in 10.0 mi SW 5.8 mph - N/A   Clear
8:53 AM 46.9 °F - 36.0 °F 66% 30.01 in 10.0 mi SW 6.9 mph - N/A   Clear
9:53 AM 54.0 °F - 37.9 °F 55% 30.01 in 10.0 mi SW 8.1 mph - N/A   Clear
10:53 AM 60.1 °F - 37.9 °F 44% 30.00 in 10.0 mi WSW 5.8 mph - N/A   Clear
11:53 AM 64.9 °F - 39.9 °F 40% 29.99 in 10.0 mi SW 11.5 mph - N/A   Clear
12:53 PM 68.0 °F - 39.0 °F 35% 29.94 in 10.0 mi WSW 11.5 mph 18.4 mph N/A   Clear
2:53 PM 72.0 °F - 39.0 °F 30% 29.88 in 10.0 mi WSW 12.7 mph 26.5 mph N/A   Clear
3:53 PM 73.9 °F - 39.9 °F 29% 29.87 in 10.0 mi West 12.7 mph 19.6 mph N/A   Clear
4:53 PM 72.0 °F - 39.9 °F 31% 29.88 in 10.0 mi NW 16.1 mph 24.2 mph N/A   Clear
5:53 PM 64.9 °F - 39.9 °F 40% 29.91 in 10.0 mi NW 11.5 mph - N/A   Clear
6:53 PM 60.1 °F - 41.0 °F 49% 29.93 in 10.0 mi NNW 6.9 mph - N/A   Clear
7:53 PM 59.0 °F - 41.0 °F 51% 29.94 in 10.0 mi Calm Calm - N/A   Clear
8:53 PM 57.9 °F - 41.0 °F 53% 29.94 in 10.0 mi WNW 4.6 mph - N/A   Clear
9:53 PM 55.9 °F - 41.0 °F 57% 29.95 in 10.0 mi North 4.6 mph - N/A   Clear
10:53 PM 55.0 °F - 41.0 °F 59% 29.95 in 10.0 mi NNE 5.8 mph - N/A   Clear
11:53 PM 52.0 °F - 39.9 °F 63% 29.96 in 10.0 mi NE 5.8 mph - N/A   Clear